Cosmos 220 Rocket - Orbit

View from above orbital plane
View from above orbital plane
View from above satellite
View from above satellite

Ground track
Ground track

The orbit data is extracted from the following two-line orbital elements,

1 03230U 68040B   13140.68403049  .00001333  00000-0  15396-3 0  9288
2 03230 074.0377 335.4013 0033304 321.7555 038.1262 14.86370593414016
Epoch (UTC): 20 May 2013 16:25:00
Eccentricity: 0.0033304
inclination: 74.0377°
perigee height: 586 km
apogee height: 632 km
right ascension of ascending node: 335.4013°
argument of perigee: 321.7555°
revolutions per day: 14.86370593
mean anomaly at epoch: 38.1262°
orbit number at epoch: 41401

The dashed part of the orbit path shows where the satellite is in the earth's shadow,  

Developed and maintained by Chris Peat, Heavens-Above GmbH. Please read the updated FAQ before sending e-mail. Imprint. DLR